Location: Cheching
(60.0667°N, 164.2167°W)
Time: 12:06:31
(UTC+00:00)

FENGYUN 1C DEB - Pass Details

Date: 01 October 2021
Orbit: 727 x 819 km, 99.4° (Epoch: 17 October)

Event Time Altitude Azimuth Distance (km) Brightness Sun altitude
Rises 05:56:22 0° 23° (NNE) 3,222 ? -11.5°
Reaches altitude 10° 05:59:56 10° 356° (N) 2,314 ? -11.9°
Maximum altitude 06:02:06 13° 331° (NNW) 2,132 ? -12.2°
Drops below altitude 10° 06:04:17 10° 305° (NW) 2,337 ? -12.4°
Sets 06:07:57 0° 279° (W) 3,285 ? -12.9°
